Wind_Speed
2 3 9 8 7 4 2 3 4 2 5 6 9 6 10 8 7 8 8 7 8 15 12 19 22 23 22 21 20 20 18 16 15 14 11 8 6 4 3 5 9 8 6 4
5 8 4 7 6 5 4 4 3 2 1 4 3 12 7 8 12 14 12 8 9 5 8 13 21 24 26 25 24 22 22 18 17 17 14 5 7 5 3 7 9 9 7 4
7 6 5 6 4 4 4 6 5 3 4 1 3 6 6 6 6 10 9 7 7 11 10 8 17 25 27 27 27 26 24 21 20 18 14 9 9 6 5 11 11 10 7 5
6 6 7 3 5 7 7 9 7 9 4 2 2 5 6 5 7 10 12 12 9 10 9 10 17 21 27 30 28 28 25 23 22 21 17 14 11 9 8 10 12 11 9 6
9 5 4 5 8 9 10 7 8 4 4 3 2 1 7 2 6 14 14 13 12 12 14 14 19 25 29 28 31 30 28 25 23 22 19 15 13 11 10 8 11 13 9 7
8 2 5 8 5 10 6 7 8 6 3 2 2 6 7 4 6 6 7 15 15 12 12 12 19 19 26 28 28 30 30 29 27 23 22 20 16 14 11 11 13 13 11 9
3 5 4 4 2 3 5 6 4 3 2 6 1 4 10 4 7 8 11 14 16 14 12 10 13 17 23 27 30 30 30 32 29 29 25 22 19 15 15 14 14 15 13 12
5 6 7 5 8 9 7 7 6 6 4 5 4 5 6 1 5 5 6 10 10 12 12 13 14 19 22 25 29 29 30 31 30 31 28 23 20 17 15 16 14 17 15 14
4 6 4 6 4 9 4 3 4 7 2 2 2 7 8 3 2 3 5 8 12 13 13 14 13 19 22 25 28 30 29 31 30 32 30 26 21 19 17 16 15 16 16 16
5 3 5 2 5 3 7 7 3 2 4 3 4 5 5 2 5 4 5 8 7 7 8 9 10 17 21 25 24 23 27 29 29 29 29 27 23 21 18 17 17 17 16 16
6 4 6 2 4 9 3 2 6 5 4 5 1 6 7 6 6 6 8 8 9 10 10 10 11 19 27 23 27 24 24 24 22 23 24 24 25 23 19 19 17 14 14 14
9 5 5 12 4 3 3 5 6 5 5 1 3 6 1 4 5 6 9 7 6 8 10 10 12 15 16 18 23 23 22 23 23 22 20 20 22 22 20 22 22 18 16 17
7 4 3 10 5 3 4 3 5 6 4 6 6 6 2 1 4 6 7 6 6 6 8 7 8 13 18 22 24 25 26 27 24 20 19 19 17 17 22 24 23 22 22 21
9 3 8 11 10 5 4 6 4 6 5 6 6 4 6 4 5 5 4 5 6 6 7 6 6 8 15 20 24 23 23 18 16 18 17 17 20 19 19 21 21 20 21 22
5 7 6 7 6 5 7 8 9 6 7 6 5 8 8 7 7 7 5 6 6 6 6 7 6 6 12 17 20 23 25 21 18 19 18 14 16 13 12 13 14 15 19 23
3 3 5 4 4 7 6 9 9 3 4 2 4 6 7 5 7 5 7 7 5 5 6 6 5 6 11 16 18 18 20 21 22 19 20 22 17 15 15 13 12 13 13 17
0 5 1 3 4 5 1 10 11 6 5 7 5 10 6 4 8 9 9 8 8 7 7 7 7 8 11 11 10 14 13 12 15 18 19 19 20 18 15 12 12 11 12 14
3 3 3 3 3 2 6 2 7 9 8 7 3 6 12 9 8 7 6 9 9 8 7 7 8 9 8 7 7 7 7 8 9 12 14 15 15 16 17 19 19 16 18 18
11 3 3 5 3 5 8 5 7 7 8 8 8 4 5 5 5 0 7 7 9 7 7 10 17 13 11 10 9 9 8 7 8 9 10 9 10 10 11 12 15 16 18 20
6 5 7 4 6 12 7 3 2 4 3 6 7 6 12 8 5 6 11 8 7 9 12 17 18 14 13 13 13 12 12 12 11 8 7 6 6 9 11 13 14 14 14 18
3 2 8 5 4 5 7 5 4 6 7 5 7 7 11 7 7 5 11 8 12 13 18 19 19 19 17 15 15 14 13 15 14 11 9 7 7 9 11 12 13 14 15 17
5 6 5 4 4 9 5 3 6 4 5 2 7 9 10 3 6 7 11 12 12 11 18 22 19 16 15 15 15 14 14 13 10 9 9 8 7 8 11 12 12 12 11 12
2 3 3 6 7 3 3 2 4 5 4 6 4 8 9 7 6 8 9 10 10 17 20 21 19 15 10 9 13 15 17 13 9 8 10 8 7 9 10 11 9 9 11 11
4 2 1 4 1 2 4 2 7 6 7 11 4 6 14 9 9 8 10 10 11 16 17 17 13 8 6 6 7 11 11 10 10 10 8 5 6 10 10 10 11 10 11 10
3 7 3 3 4 1 4 3 5 9 10 10 1 3 9 13 8 13 9 10 12 17 19 18 15 11 8 5 5 4 4 6 7 5 4 7 10 11 10 13 13 12 9 9
4 4 2 3 3 2 5 7 7 9 8 10 7 2 7 11 15 10 12 13 18 19 21 17 14 12 9 7 6 4 4 5 5 5 6 8 9 9 9 11 12 11 11 11
Wind_Direction
19 103 225 184 192 199 220 204 238 254 181 168 211 232 221 225 216 227 218 228 224 210 199 190 195 206 207 208 209 215 210 203 193 186 188 206 219 197 192 168 176 179 193 154
33 228 155 166 177 216 243 235 228 340 354 181 220 249 222 191 216 221 223 219 203 191 172 176 184 202 206 206 207 210 211 205 197 192 189 192 187 193 204 171 174 183 190 188
173 251 143 159 164 181 244 218 179 156 102 280 292 280 221 211 205 199 209 218 192 190 183 176 178 194 206 208 209 208 206 206 203 195 191 185 176 181 184 183 185 186 196 204
231 257 249 159 223 150 253 209 229 132 115 248 28 280 295 217 222 221 210 207 196 198 188 182 189 191 200 211 213 211 205 208 206 202 199 193 187 191 197 190 193 199 209 214
237 186 151 195 219 165 242 190 194 124 97 42 164 55 267 94 245 230 220 206 201 194 193 187 194 199 204 205 213 212 209 209 210 207 210 208 202 197 204 207 206 206 220 229
226 237 166 217 166 185 83 77 47 54 69 344 200 156 281 205 206 244 193 203 197 195 191 196 201 191 199 207 211 210 211 210 213 213 214 215 215 206 202 211 211 221 233 240
267 224 239 168 158 91 94 74 26 17 28 226 201 119 249 251 245 232 204 196 195 188 182 180 180 176 185 196 207 211 213 216 218 210 212 216 217 217 220 220 224 225 232 232
187 301 185 187 187 180 176 156 152 190 194 244 130 238 252 284 315 259 200 192 175 181 180 186 183 182 186 188 195 204 210 215 213 210 212 215 221 226 233 232 233 232 229 240
170 279 256 204 151 135 214 167 190 102 357 51 245 288 297 128 29 139 156 152 178 185 184 187 181 180 182 189 198 205 212 217 215 215 217 218 224 229 232 231 233 235 243 252
209 279 227 241 120 44 163 156 81 14 141 223 294 281 242 263 217 144 171 175 185 191 178 176 180 180 188 193 199 209 217 223 222 221 222 224 227 232 233 235 234 239 252 253
144 141 286 357 187 180 142 154 59 112 122 158 237 271 220 203 199 197 225 177 180 179 183 180 184 184 201 201 209 222 219 224 225 225 226 232 234 234 237 238 243 240 244 245
201 158 237 230 221 217 206 155 137 128 218 101 156 270 160 212 208 209 242 168 185 173 176 182 181 177 198 205 211 214 217 218 221 221 222 228 234 236 239 239 244 243 243 250
183 215 275 314 354 31 202 166 118 106 92 188 140 260 112 103 127 201 226 166 177 162 152 168 158 179 191 196 206 212 214 219 226 229 230 230 228 227 235 237 242 247 248 248
125 148 177 222 216 152 185 159 153 125 128 169 221 260 284 196 158 185 192 153 160 170 164 174 183 183 186 195 197 198 198 204 208 212 223 235 239 238 240 239 240 245 250 248
146 206 186 244 231 171 183 175 168 172 164 154 227 206 239 238 196 191 182 142 153 181 188 188 195 182 181 195 206 214 219 222 222 223 229 236 240 244 243 240 247 253 256 253
190 225 166 278 206 193 185 190 159 150 135 131 141 249 196 171 107 140 168 157 177 205 209 195 186 182 189 198 201 208 218 225 226 233 242 243 253 250 248 258 271 257 259 265
203 157 151 259 320 141 34 187 181 175 170 149 157 225 168 156 172 183 175 176 184 198 203 182 185 188 188 197 198 199 203 213 223 238 248 254 257 254 248 263 260 275 282 273
274 304 85 24 347 273 245 120 181 179 187 200 246 199 198 192 168 149 177 175 189 182 182 182 170 183 171 171 188 198 203 213 222 233 242 253 262 269 269 274 275 273 269 265
202 204 82 168 309 295 308 170 153 164 236 200 218 189 129 112 77 207 189 186 186 177 176 181 170 171 158 150 152 155 164 180 202 223 239 253 265 272 274 274 277 277 267 259
153 209 142 144 142 247 245 295 161 99 272 225 173 196 147 131 144 227 178 162 154 161 163 166 171 168 163 159 161 164 168 176 195 204 229 242 263 278 282 286 289 290 271 269
137 280 177 170 129 281 247 221 108 117 230 189 172 169 171 160 189 166 145 154 164 164 157 173 175 173 178 176 179 190 186 199 202 204 220 240 259 276 289 295 294 292 284 279
179 169 178 117 150 230 4 39 166 252 307 212 147 176 199 104 124 144 147 150 150 141 147 167 169 178 183 189 197 206 215 233 226 221 223 230 255 276 287 289 290 285 285 290
300 192 218 199 194 139 257 252 354 342 261 287 189 164 159 146 160 150 143 140 142 140 145 161 159 167 177 206 215 220 239 242 228 219 210 230 264 283 284 285 284 279 283 287
310 314 284 22 314 19 26 36 8 2 297 286 259 184 161 162 153 128 127 129 132 139 152 159 162 163 194 222 236 244 254 245 221 205 209 240 269 280 284 275 271 273 279 285
242 326 305 290 285 251 194 71 341 330 348 348 326 223 154 140 145 138 132 139 142 143 150 160 160 167 191 221 249 256 243 208 197 208 252 291 302 296 287 276 277 276 272 279
182 261 324 270 284 124 267 310 336 345 337 328 348 307 157 153 154 141 147 150 149 147 155 158 167 177 181 200 212 196 183 197 215 249 281 296 294 292 279 276 268 275 284 301
Height
775 790 799 797 795 790 792 800 801 790 782 794 799 799 793 788 790 790 792 793 791 788 789 795 800 804 808 812 816 819 821 824 827 828 830 833 833 835 837 838 840 841 841 843
789 795 779 779 786 789 792 798 799 790 783 794 796 796 788 786 784 782 785 787 788 787 790 793 796 800 804 808 813 817 820 823 826 827 829 831 832 834 836 837 840 841 841 842
795 780 770 776 786 793 793 797 795 794 792 795 796 799 788 779 777 776 777 778 781 783 786 790 794 796 800 804 809 813 818 821 824 826 828 830 831 833 834 835 838 840 840 842
786 770 774 781 786 788 806 778 777 791 803 817 795 825 792 783 781 775 773 773 777 780 782 786 789 792 796 799 806 810 814 818 821 824 827 829 830 831 832 834 836 838 840 841
783 773 777 784 780 778 784 769 778 788 804 808 809 821 795 786 788 774 768 769 770 774 776 779 781 785 791 796 802 806 811 815 819 822 824 826 828 829 831 833 834 837 838 839
771 756 760 764 760 764 767 782 794 808 813 831 802 810 797 788 776 764 761 761 762 766 771 775 779 783 787 793 799 804 808 811 815 818 822 823 826 827 829 831 833 835 836 837
771 767 755 751 764 764 777 800 837 834 837 836 809 815 789 762 758 752 752 753 755 760 767 772 775 779 785 789 794 800 803 807 811 814 818 820 823 825 827 829 831 832 834 835
793 794 763 748 757 772 781 789 823 831 842 823 809 816 780 752 748 745 743 746 752 757 762 766 768 774 780 785 791 796 799 803 807 811 814 817 821 823 824 827 829 830 832 833
794 786 747 743 741 751 776 792 780 816 820 819 809 790 762 752 750 748 748 750 752 754 757 761 767 770 776 781 787 791 796 799 803 806 810 813 817 820 821 823 826 827 829 830
764 786 751 739 740 746 758 763 794 809 821 820 816 806 794 759 754 750 751 752 754 753 757 761 766 769 773 778 784 789 793 795 797 803 807 810 813 816 817 820 822 823 825 826
762 771 763 744 754 764 767 775 791 797 810 824 824 799 759 755 748 750 747 747 749 751 754 758 762 766 770 775 782 786 789 793 796 799 802 806 809 811 813 816 818 820 822 824
748 771 779 764 741 740 743 757 773 798 804 817 813 792 736 743 743 742 742 742 746 747 751 754 759 766 771 775 779 782 786 788 791 794 797 799 802 807 809 811 814 816 817 821
746 765 783 771 757 742 745 753 768 783 796 810 809 792 740 741 742 741 742 741 745 747 751 754 759 763 766 770 773 777 780 783 787 791 794 796 798 800 802 806 809 811 813 816
729 762 757 768 763 749 753 751 761 765 794 801 795 767 744 738 740 739 738 741 744 747 750 753 756 759 764 767 771 775 777 780 783 788 791 792 794 795 798 801 805 806 808 810
733 755 755 743 736 734 739 747 756 759 766 769 763 768 745 740 739 737 738 741 744 747 749 751 755 757 761 764 768 772 774 777 781 784 787 789 792 795 797 799 801 802 804 806
736 745 748 741 735 736 739 740 745 745 760 752 754 760 736 731 736 739 740 742 744 746 747 748 751 754 756 759 763 767 771 774 779 781 782 786 789 793 795 796 796 798 799 801
741 740 746 754 742 740 752 743 742 741 743 745 757 738 734 734 734 737 739 739 741 743 744 747 750 752 753 756 759 764 768 772 775 778 780 783 786 789 791 793 794 793 794 797
736 742 745 759 749 771 733 715 720 726 726 731 728 724 723 718 719 727 730 734 737 740 744 746 748 751 753 756 759 763 766 770 773 776 779 781 782 784 786 788 788 790 792 792
728 737 754 768 771 752 724 719 722 727 732 719 721 716 721 723 722 727 728 729 731 737 740 743 746 751 753 757 761 763 766 768 772 774 776 778 780 782 783 783 785 786 786 788
720 734 733 757 771 772 738 710 703 707 744 707 711 719 720 720 745 731 722 726 732 736 739 744 747 752 756 758 762 765 767 769 771 773 775 777 778 780 781 781 782 782 782 783
735 740 739 744 751 746 720 705 703 743 739 703 706 712 715 717 712 707 715 725 728 733 739 745 749 751 755 758 761 764 766 768 769 772 774 776 777 778 779 778 778 779 779 779
736 744 745 744 745 762 718 706 722 718 701 696 701 706 706 705 708 710 714 720 726 733 739 745 750 753 756 758 760 763 764 765 769 770 772 773 775 776 777 776 776 776 776 776
742 738 738 732 721 715 717 717 714 713 708 699 697 696 702 707 709 712 716 721 726 731 739 746 748 751 754 757 759 761 762 764 766 768 770 772 773 774 774 774 773 773 773 772
736 734 736 729 723 720 717 712 714 711 710 701 694 696 694 702 707 712 717 723 727 734 739 743 747 750 753 756 757 758 761 763 764 766 768 770 770 771 772 771 770 769 768 768
743 740 734 729 723 718 718 717 716 711 703 700 694 695 693 698 707 708 718 724 728 733 739 744 748 751 753 755 756 757 759 761 763 765 766 767 767 767 768 768 767 767 766 766
739 737 734 733 723 723 721 715 711 708 707 704 700 698 695 695 703 709 717 721 728 733 739 744 748 751 752 754 756 758 759 761 763 764 765 766 766 766 766 765 765 765 765 764